COSMOS 1823 DEB, 39808

Orbit data source: Space-Track

COSMOS 1823 DEB, 39808 is space debris in LEO originally from a launch on Fri, 20 Feb 1987 UTC launched from the Plesetsk Missile And Space Complex (PKMTR). Debris objects in space refer to the collection of defunct objects orbiting the Earth. Examples of debris include non-operational satellites, rocket bodies, and fragments generated from explosions, collisions, or faulty payload assembly.

Loading next visibility...
Identifier
39808, 1987-020EG
Orbit
LEO
Country
Flag of CISCIS
Related business
Manufacturer
Unknown
Mission
Spacecraft
Bus & Motor
Unknown
Mass
Unknown
Launch date (UTC)
1987-02-20 (39 years ago)
Launch vehicle
Unknown
Launch site
Plesetsk Missile And Space Complex (PKMTR)
Object type
Payload
Rocket body
Debris
Shape & HBR
Unknown shape, 0.1 m
Radar Cross Section
Small (<0.1 m²)

Expand to show TLE details & history
Last TLE update: 1 week ago

TLE from 1 week ago
0 COSMOS 1823 DEB
1 39808U 87020EG  26166.94094685  .00000215  00000-0  16372-2 0  9990
2 39808  73.6217  46.1220 0050118 172.6096 187.5699 12.44526782546176
Epoch: 2026-06-15T22:34Z
TLE epoch observation values (Epoch: 2026-06-15T22:34:57.807Z)
Latitude
-0.00009°
Longitude
163.16099°
Altitude
1,528.91 km
Speed
7.084 km/s
True Right ascension
03h 04m 29s
True Declination
0° 00' 00"
Sunlit
Object was in daylight at epoch
Visualization orbit readout
Latitude
Unknown
Longitude
Unknown
Altitude
Unknown
Speed
Unknown
Apparent Right ascension
Unknown
Apparent Declination
Unknown
Sunlit
N/A
Visualization observer readout
Local Sidereal Time
08:23:17
Azimuth
Unknown
Elevation
Unknown
Doppler factor
Unknown
Orbital elements
Apogee altitude
1,524.755 km
Perigee altitude
1,445.935 km
Semi-major axis
7,863.482 km
Eccentricity
0.00501
Inclination
73.6217°
RAAN
46.122°
Arg. of periapsis
172.6096°
True anomaly
187.49471°
Mean anomaly
187.5699°
Eccentric anomaly
187.53226°
Mean motion
3.11258 °/min
Orbital period
115.66 mins
BSTAR
0.0016372
Loading maneuver chart data...
Computing Atmospheric mass density...

Documentation

Showing up to 5 results
|